Glenwood, MN

7:06 PM CST on December 13, 2017 (GMT -0600)
Glenwood Municipal

Weather History for KGHW - April, 2014

Change the Weather History Date:

Tuesday, April 8, 2014

  Actual Average Record
Temperature  
Mean Temperature 42 °F -  
Max Temperature 51 °F 51 °F 83 °F (1988)
Min Temperature 32 °F 29 °F 5 °F (1997)
Degree Days  
Heating Degree Days 24    
Moisture  
Dew Point 29 °F    
Average Humidity 67    
Maximum Humidity 87    
Minimum Humidity 38    
Precipitation  
Precipitation 0.00 in - - ()
Sea Level Pressure  
Sea Level Pressure 29.98 in    
Wind  
Wind Speed 11 mph (NW)    
Max Wind Speed 17 mph    
Max Gust Speed 25 mph    
Visibility 10 miles    
Events      
Averages and records for this station are not official NWS values.
T = Trace of Precipitation, MM = Missing Value Source: NWS Daily Summary

Daily Weather History Graph

Daily Weather History Graph

Search for Another Location

Airport or City:

Trip Planner

Search our weather history database for the weather conditions in past years. The results will help you decide how hot, cold, wet, or windy it might be!

Date:

Astronomy

Apr. 08, 2014 Rise Set
Actual Time 6:48 AM CDT 7:58 PM CDT
Civil Twilight 6:17 AM CDT 8:29 PM CDT
Nautical Twilight 5:41 AM CDT 9:06 PM CDT
Astronomical Twilight 5:02 AM CDT 9:44 PM CDT
Moon 1:36 PM CDT (4/8) 3:19 AM CDT (4/8)
Length of Visible Light 14h 11m
Length of Day
13h 10m
Waxing Gibbous, 63% of the Moon is Illuminated
Apr 8
Waxing Gibbous
Apr 15
Full
Apr 22
Last Quarter
Apr 29
New
May 6
First Quarter

Hourly Weather History & Observations

Time (CDT) Temp. Windchill Dew Point Humidity Pressure Visibility Wind Dir Wind Speed Gust Speed Precip Events Conditions
12:14 AM 37.4 °F 31.4 °F 32.0 °F 81% 29.89 in 10.0 mi NNW 8.1 mph - N/A   Overcast
12:33 AM 37.4 °F 30.8 °F 32.0 °F 81% 29.89 in 10.0 mi NNW 9.2 mph - N/A   Overcast
12:53 AM 37.4 °F 31.4 °F 32.0 °F 81% 29.90 in 10.0 mi NNW 8.1 mph - N/A   Overcast
1:14 AM 37.4 °F 31.4 °F 32.0 °F 81% 29.90 in 10.0 mi NNW 8.1 mph - N/A   Mostly Cloudy
1:33 AM 37.4 °F 31.4 °F 32.0 °F 81% 29.90 in 10.0 mi NNW 8.1 mph - N/A   Mostly Cloudy
1:54 AM 37.4 °F - 30.2 °F 75% 29.90 in 10.0 mi North - - N/A   Scattered Clouds
2:13 AM 35.6 °F 28.6 °F 30.2 °F 81% 29.90 in 10.0 mi NNW 9.2 mph - N/A   Clear
2:33 AM 35.6 °F 28.0 °F 30.2 °F 81% 29.90 in 10.0 mi NNW 10.4 mph - N/A   Scattered Clouds
2:53 AM 35.6 °F - 30.2 °F 81% 29.90 in 10.0 mi North - - N/A   Mostly Cloudy
3:14 AM 35.6 °F 28.0 °F 30.2 °F 81% 29.90 in 10.0 mi NNW 10.4 mph - N/A   Scattered Clouds
3:33 AM 33.8 °F 24.8 °F 30.2 °F 87% 29.90 in 10.0 mi NNW 12.7 mph - N/A   Clear
3:53 AM 33.8 °F 26.4 °F 30.2 °F 87% 29.91 in 10.0 mi NW 9.2 mph - N/A   Clear
4:13 AM 35.6 °F 26.2 °F 32.0 °F 87% 29.91 in 10.0 mi NNW 15.0 mph 19.6 mph N/A   Mostly Cloudy
4:33 AM 35.6 °F 27.5 °F 30.2 °F 81% 29.92 in 10.0 mi NNW 11.5 mph - N/A   Overcast
4:54 AM 35.6 °F 26.2 °F 30.2 °F 81% 29.93 in 10.0 mi NNW 15.0 mph - N/A   Overcast
5:13 AM 33.8 °F 24.3 °F 30.2 °F 87% 29.93 in 10.0 mi NW 13.8 mph 17.3 mph N/A   Overcast
5:34 AM 33.8 °F 24.8 °F 28.4 °F 81% 29.94 in 10.0 mi NW 12.7 mph - N/A   Mostly Cloudy
5:53 AM 33.8 °F 25.3 °F 28.4 °F 81% 29.95 in 10.0 mi NW 11.5 mph 18.4 mph N/A   Scattered Clouds
6:13 AM 32.0 °F 23.0 °F 28.4 °F 87% 29.95 in 10.0 mi NW 11.5 mph 16.1 mph N/A   Clear
6:34 AM 32.0 °F 22.5 °F 28.4 °F 87% 29.96 in 10.0 mi NW 12.7 mph - N/A   Clear
6:53 AM 32.0 °F 22.1 °F 28.4 °F 87% 29.97 in 10.0 mi NNW 13.8 mph 23.0 mph N/A   Scattered Clouds
7:13 AM 32.0 °F 21.6 °F 28.4 °F 87% 29.98 in 10.0 mi NNW 15.0 mph - N/A   Mostly Cloudy
7:33 AM 33.8 °F 23.5 °F 28.4 °F 81% 29.98 in 10.0 mi NNW 16.1 mph - N/A   Mostly Cloudy
8:13 AM 33.8 °F 23.5 °F 28.4 °F 81% 29.99 in 10.0 mi NNW 16.1 mph 20.7 mph N/A   Scattered Clouds
8:33 AM 33.8 °F 24.3 °F 28.4 °F 81% 30.00 in 10.0 mi NNW 13.8 mph - N/A   Scattered Clouds
8:54 AM 35.6 °F 27.5 °F 28.4 °F 75% 30.01 in 10.0 mi NNW 11.5 mph 23.0 mph N/A   Scattered Clouds
9:13 AM 35.6 °F 25.9 °F 28.4 °F 75% 30.01 in 10.0 mi NNW 16.1 mph 20.7 mph N/A   Scattered Clouds
9:33 AM 35.6 °F 28.0 °F 28.4 °F 75% 30.02 in 10.0 mi NNW 10.4 mph 18.4 mph N/A   Scattered Clouds
9:53 AM 35.6 °F 27.1 °F 28.4 °F 75% 30.03 in 10.0 mi NW 12.7 mph - N/A   Mostly Cloudy
10:13 AM 35.6 °F 27.5 °F 30.2 °F 81% 30.04 in 10.0 mi NW 11.5 mph - N/A   Mostly Cloudy
10:34 AM 35.6 °F 26.6 °F 30.2 °F 81% 30.04 in 10.0 mi NW 13.8 mph 19.6 mph N/A   Mostly Cloudy
10:53 AM 37.4 °F 28.9 °F 30.2 °F 75% 30.05 in 10.0 mi NW 13.8 mph - N/A   Scattered Clouds
11:13 AM 39.2 °F 30.8 °F 30.2 °F 70% 30.04 in 10.0 mi WNW 15.0 mph - N/A   Scattered Clouds
11:34 AM 39.2 °F 31.6 °F 30.2 °F 70% 30.04 in 10.0 mi NW 12.7 mph 18.4 mph N/A   Clear
11:53 AM 42.8 °F 36.6 °F 30.2 °F 61% 30.04 in 10.0 mi NW 11.5 mph 16.1 mph N/A   Clear
12:13 PM 42.8 °F 35.8 °F 30.2 °F 61% 30.04 in 10.0 mi NW 13.8 mph 19.6 mph N/A   Clear
12:33 PM 44.6 °F 38.8 °F 30.2 °F 57% 30.04 in 10.0 mi NW 11.5 mph 18.4 mph N/A   Clear
12:53 PM 44.6 °F 38.8 °F 30.2 °F 57% 30.03 in 10.0 mi NW 11.5 mph 18.4 mph N/A   Clear
1:14 PM 46.4 °F 40.1 °F 30.2 °F 53% 30.03 in 10.0 mi NW 15.0 mph 23.0 mph N/A   Clear
1:33 PM 46.4 °F 39.5 °F 28.4 °F 50% 30.03 in 10.0 mi WNW 17.3 mph 21.9 mph N/A   Clear
1:53 PM 48.2 °F - 28.4 °F 46% 30.03 in 10.0 mi NW 16.1 mph 21.9 mph N/A   Clear
2:14 PM 48.2 °F - 26.6 °F 43% 30.03 in 10.0 mi NW 12.7 mph 20.7 mph N/A   Clear
2:33 PM 48.2 °F - 28.4 °F 46% 30.03 in 10.0 mi NW 12.7 mph 21.9 mph N/A   Clear
2:53 PM 50.0 °F - 26.6 °F 40% 30.02 in 10.0 mi NNW 15.0 mph 25.3 mph N/A   Clear
3:13 PM 50.0 °F - 28.4 °F 43% 30.01 in 10.0 mi NNW 11.5 mph 17.3 mph N/A   Scattered Clouds
3:33 PM 50.0 °F - 26.6 °F 40% 30.01 in 10.0 mi NW 10.4 mph - N/A   Scattered Clouds
3:53 PM 50.0 °F - 28.4 °F 43% 30.00 in 10.0 mi NW 16.1 mph 19.6 mph N/A   Scattered Clouds
4:13 PM 51.8 °F - 26.6 °F 38% 30.00 in 10.0 mi NW 12.7 mph 18.4 mph N/A   Scattered Clouds
4:34 PM 51.8 °F - 28.4 °F 41% 30.00 in 10.0 mi NW 11.5 mph 19.6 mph N/A   Scattered Clouds
4:53 PM 51.8 °F - 28.4 °F 41% 30.00 in 10.0 mi NW 16.1 mph 23.0 mph N/A   Scattered Clouds
5:13 PM 48.2 °F - 26.6 °F 43% 30.00 in 10.0 mi WNW 13.8 mph 18.4 mph N/A   Clear
5:34 PM 50.0 °F - 28.4 °F 43% 30.00 in 10.0 mi WNW 12.7 mph 16.1 mph N/A   Clear
5:53 PM 50.0 °F - 28.4 °F 43% 30.00 in 10.0 mi WNW 13.8 mph 18.4 mph N/A   Clear
6:13 PM 48.2 °F - 28.4 °F 46% 30.00 in 10.0 mi NW 11.5 mph 17.3 mph N/A   Clear
6:33 PM 48.2 °F - 28.4 °F 46% 30.00 in 10.0 mi NW 9.2 mph - N/A   Clear
6:53 PM 48.2 °F - 30.2 °F 50% 30.00 in 10.0 mi NW 6.9 mph - N/A   Clear
7:13 PM 46.4 °F 43.5 °F 30.2 °F 53% 30.00 in 10.0 mi NW 5.8 mph - N/A   Clear
7:34 PM 44.6 °F 40.7 °F 30.2 °F 57% 30.00 in 10.0 mi WNW 6.9 mph - N/A   Clear
7:53 PM 42.8 °F 40.1 °F 30.2 °F 61% 30.00 in 10.0 mi WNW 4.6 mph - N/A   Clear
8:13 PM 42.8 °F 41.1 °F 30.2 °F 61% 29.99 in 10.0 mi West 3.5 mph - N/A   Clear
8:33 PM 41.0 °F - 28.4 °F 61% 29.99 in 10.0 mi Calm Calm - N/A   Clear
8:53 PM 42.8 °F - 28.4 °F 57% 29.98 in 10.0 mi Calm Calm - N/A   Clear
9:14 PM 39.2 °F - 28.4 °F 65% 29.98 in 10.0 mi Calm Calm - N/A   Clear
9:33 PM 39.2 °F - 28.4 °F 65% 29.97 in 10.0 mi Calm Calm - N/A   Clear
9:54 PM 35.6 °F 31.7 °F 28.4 °F 75% 29.97 in 10.0 mi SSE 4.6 mph - N/A   Scattered Clouds
10:13 PM 37.4 °F 33.8 °F 28.4 °F 70% 29.96 in 10.0 mi South 4.6 mph - N/A   Scattered Clouds
10:33 PM 35.6 °F 30.7 °F 28.4 °F 75% 29.96 in 10.0 mi South 5.8 mph - N/A   Scattered Clouds
10:54 PM 35.6 °F 29.2 °F 28.4 °F 75% 29.95 in 10.0 mi South 8.1 mph - N/A   Clear
11:13 PM 35.6 °F 28.6 °F 28.4 °F 75% 29.94 in 10.0 mi South 9.2 mph - N/A   Clear
11:34 PM 33.8 °F 27.7 °F 28.4 °F 81% 29.93 in 10.0 mi South 6.9 mph - N/A   Clear
11:53 PM 33.8 °F 28.6 °F 28.4 °F 81% 29.93 in 10.0 mi South 5.8 mph - N/A   Clear